WetterOnline ( http://www.wetteronline.de )

Wetter aktuell Augsburg

Aktuelles Wetter: Augsburg/Mühlhausen (477m)

6-stündlich | Neueste Meldungen
Ortszeit Temperatur Wetter
Mi, 21.02. 1:00 -3.2° C bewölkt
Di, 20.02. 19:00 -3.1° C leichter Schneefall
Di, 20.02. 13:00 -1.6° C bedeckt
Di, 20.02. 7:00 -4.0° C bedeckt
Di, 20.02. 1:00 -3.3° C bedeckt
Mo, 19.02. 19:00 -3.1° C bewölkt
Mo, 19.02. 13:00 -2.7° C bedeckt
Mo, 19.02. 7:00 -3.4° C bedeckt
Ortszeit Temperatur Wetter
Mi, 21.02. 1:50 -3° C -
Mi, 21.02. 1:30 -3.2° C bedeckt
Mi, 21.02. 1:20 -3.2° C bedeckt
Mi, 21.02. 1:10 -3.5° C bewölkt
Mi, 21.02. 1:00 -3.2° C bewölkt
Mi, 21.02. 0:50 -3° C -
Mi, 21.02. 0:30 -3.3° C bewölkt
Mi, 21.02. 0:00 -3.4° C bewölkt
Di, 20.02. 23:30 -3.9° C bedeckt
Di, 20.02. 23:00 -4.2° C bedeckt
Di, 20.02. 22:30 -4.6° C bedeckt
Ortszeit Relative Feuchte Sichtweite
Mi, 21.02. 1:00 94% 3.2 km
Di, 20.02. 19:00 92% 2.1 km
Di, 20.02. 13:00 71% 70 km
Di, 20.02. 7:00 91% 4.3 km
Di, 20.02. 1:00 93% 3.9 km
Mo, 19.02. 19:00 90% 6 km
Mo, 19.02. 13:00 83% 8 km
Mo, 19.02. 7:00 88% 7 km
Ortszeit Relative Feuchte Sichtweite
Mi, 21.02. 1:50 93% 5.0 km
Mi, 21.02. 1:30 93% 3.3 km
Mi, 21.02. 1:20 93% -
Mi, 21.02. 1:10 93% -
Mi, 21.02. 1:00 94% 3.2 km
Mi, 21.02. 0:50 93% 3.8 km
Mi, 21.02. 0:30 93% 2.8 km
Mi, 21.02. 0:00 93% 2.5 km
Di, 20.02. 23:30 96% 1.6 km
Di, 20.02. 23:00 95% 1.7 km
Di, 20.02. 22:30 95% 1.6 km
Ortszeit Niederschlagsmenge Niederschlagsart
Mi, 21.02. 1:00 0.1 l/m2 in 6 Std. Schnee
Di, 20.02. 19:00 0.2 l/m2 in 12 Std. Schnee, Niederschlag
Di, 20.02. 13:00 0.1 l/m2 in 6 Std. Sprühregen
Di, 20.02. 7:00 0.0 l/m2 in 12 Std. -
Di, 20.02. 1:00 0.0 l/m2 in 6 Std. -
Mo, 19.02. 19:00 0.1 l/m2 in 12 Std. -
Mo, 19.02. 13:00 0.1 l/m2 in 6 Std. Schnee, Sprühregen
Mo, 19.02. 7:00 0.0 l/m2 in 12 Std. -
Ortszeit Niederschlagsmenge Niederschlagsart
Mi, 21.02. 1:50 keine Meldung -
Mi, 21.02. 1:30 0.0 l/m2 in 1 Std. -
Mi, 21.02. 1:20 keine Meldung -
Mi, 21.02. 1:10 keine Meldung -
Mi, 21.02. 1:00 0.0 l/m2 in 1 Std. Schnee
Mi, 21.02. 0:50 keine Meldung -
Mi, 21.02. 0:30 0.0 l/m2 in 1 Std. -
Mi, 21.02. 0:00 0.1 l/m2 in 1 Std. Schnee
Di, 20.02. 23:30 0.1 l/m2 in 1 Std. Schnee
Di, 20.02. 23:00 0.1 l/m2 in 1 Std. Schnee
Di, 20.02. 22:30 0.1 l/m2 in 1 Std. Schnee
Ortszeit Stärke Spitze Richtung
km/h Bft. km/h Grad Sektor
Mi, 21.02. 1:00 6 1 9 40° NO
Di, 20.02. 19:00 7 2 14 60° NO
Di, 20.02. 13:00 7 2 7 20° N
Di, 20.02. 7:00 4 1 11 330° NW
Di, 20.02. 1:00 0 0 7 - -
Mo, 19.02. 19:00 7 2 14 60° NO
Mo, 19.02. 13:00 9 2 17 40° NO
Mo, 19.02. 7:00 7 2 22 130° SO
Ortszeit Stärke Spitze Richtung
km/h Bft. km/h Grad Sektor
Mi, 21.02. 1:50 4 1 - 300° NW
Mi, 21.02. 1:30 6 1 7 40° NO
Mi, 21.02. 1:20 6 1 - 40° NO
Mi, 21.02. 1:10 6 1 - 30° NO
Mi, 21.02. 1:00 6 1 9 40° NO
Mi, 21.02. 0:50 6 1 - 20° N
Mi, 21.02. 0:30 4 1 7 10° N
Mi, 21.02. 0:00 6 1 7 360° N
Di, 20.02. 23:30 4 1 4 350° N
Di, 20.02. 23:00 4 1 7 340° N
Di, 20.02. 22:30 2 1 6 240° SW
Ortszeit Untergrenze Bedeckung Gattung
total tief tief mittel hoch
Mi, 21.02. 1:00 180 m 8/8 7/8 - - -
Di, 20.02. 19:00 330 m 7/8 7/8 - - -
Di, 20.02. 13:00 480 m 8/8 8/8 - - -
Di, 20.02. 7:00 990 m 8/8 8/8 - - -
Di, 20.02. 1:00 510 m 8/8 8/8 - - -
Mo, 19.02. 19:00 810 m 7/8 8/8 - - -
Mo, 19.02. 13:00 270 m 8/8 8/8 - - -
Mo, 19.02. 7:00 240 m 8/8 8/8 - - -
Ortszeit Bedeckungsgrad in Achtel und Wolkenuntergrenze
Mi, 21.02. 1:50 -
Mi, 21.02. 1:30 7(270m) 8(1200m)
Mi, 21.02. 1:20 7(270m) 8(1200m)
Mi, 21.02. 1:10 2(150m) 6(270m) 7(1260m)
Mi, 21.02. 1:00 7(180m) 8(840m) 7(1260m)
Mi, 21.02. 0:50 -
Mi, 21.02. 0:30 4(150m) 7(810m)
Mi, 21.02. 0:00 7(150m)
Di, 20.02. 23:30 5(210m) 7(390m) 8(780m)
Di, 20.02. 23:00 2(240m) 8(690m) 8(690m)
Di, 20.02. 22:30 8(600m)
Ortszeit Luftdruck NN (hPa) Tendenz (hPa in 3 Std.)
Mi, 21.02. 1:00 1019 + 0,2
Di, 20.02. 19:00 1018 + 1,0
Di, 20.02. 13:00 1017 - 0,3
Di, 20.02. 7:00 1017 0,0
Di, 20.02. 1:00 1018 - 0,8
Mo, 19.02. 19:00 1020 - 0,5
Mo, 19.02. 13:00 1021 - 0,9
Mo, 19.02. 7:00 1023 - 1,2
Ortszeit Luftdruck NN (hPa) Tendenz (hPa in 3 Std.)
Mi, 21.02. 1:50 1016 keine Meldung
Mi, 21.02. 1:30 1019 + 0,2
Mi, 21.02. 1:20 1019 keine Meldung
Mi, 21.02. 1:10 1020 keine Meldung
Mi, 21.02. 1:00 1019 + 0,2
Mi, 21.02. 0:50 1016 keine Meldung
Mi, 21.02. 0:30 1019 + 0,3
Mi, 21.02. 0:00 1019 + 0,5
Di, 20.02. 23:30 1020 + 0,6
Di, 20.02. 23:00 1020 + 0,7
Di, 20.02. 22:30 1019 + 0,7
Ortszeit Schneehöhe (cm)
Mi, 21.02. 1:00 8
Di, 20.02. 19:00 8
Di, 20.02. 13:00 8
Di, 20.02. 7:00 9
Di, 20.02. 1:00 9
Mo, 19.02. 19:00 9
Mo, 19.02. 13:00 9
Mo, 19.02. 7:00 9
Ortszeit Schneehöhe (cm)
Mi, 21.02. 1:50 -
Mi, 21.02. 1:30 7
Mi, 21.02. 1:20 7
Mi, 21.02. 1:10 8
Mi, 21.02. 1:00 8
Mi, 21.02. 0:50 -
Mi, 21.02. 0:30 7
Mi, 21.02. 0:00 8
Di, 20.02. 23:30 8
Di, 20.02. 23:00 8
Di, 20.02. 22:30 8
Link zu dieser Seite / Seite empfehlen

Das Wetter in ...